Hourly Data Report for October 02, 2017

All times are specified in Local Standard Time (LST). Add 1 hour to adjust for Daylight Saving Time where and when it is observed.

MORDEN CDA CS
MANITOBA

49°11'15.500" N
98°05'02.200" W
297.50 m
5021849
71564
XMD

Download Data

Hourly Data (October 2017)
Hourly Data Report for October 2, 2017
Temp Definition
°C
Dew Point Temp Definition
°C
Rel Hum Definition
%
Wind Dir Definition
10's deg

Wind Spd Definition
km/h
Visibility Definition
km
Stn Press Definition
kPa
Hmdx Definition


Wind Chill Definition


Weather Definition


TIME
00:00 13.1 12.0 93 14 8   96.62     LegendNANA
01:00 13.9 12.9 94 17 8   96.62     LegendNANA
02:00 14.0 13.1 94 14 9   96.61     LegendNANA
03:00 14.3 13.4 94 19 6   96.56     LegendNANA
04:00 13.3 10.4 83 23 14   96.61     LegendNANA
05:00 12.2 9.6 84 23 15   96.71     LegendNANA
06:00 12.1 9.3 83 23 5   96.74     LegendNANA
07:00 11.7 8.3 80 24 11   96.82     LegendNANA
08:00 12.2 8.2 77 24 14   96.88     LegendNANA
09:00 11.8 7.2 74 25 18   96.99     LegendNANA
10:00 11.7 7.3 75 22 15   97.03     LegendNANA
11:00 12.2 6.8 70 25 19   97.10     LegendNANA
12:00 13.8 7.2 64 23 22   97.14     LegendNANA
13:00 14.4 5.1 53 24 20   97.18     LegendNANA
14:00 15.0 4.6 50 25 21   97.23     LegendNANA
15:00 15.7 4.4 47 25 19   97.27     LegendNANA
16:00 14.7 4.7 51 24 15   97.36     LegendNANA
17:00 14.7 4.5 50 23 15   97.38     LegendNANA
18:00 13.5 3.6 51 22 9   97.47     LegendNANA
19:00 11.4 4.1 61 20 6   97.56     LegendNANA
20:00 8.3 4.4 76 19 4   97.62     LegendNANA
21:00 8.8 3.7 70 20 6   97.72     LegendNANA
22:00 7.0 3.4 78 22 4   97.68     LegendNANA
23:00 5.1 3.0 87 20 3   97.72     LegendNANA

Notes on Data Quality.

Legend

  • E = Estimated
  • M = Missing
  • NA = Not Available
  • ‡ = Partner data that is not subject to review by the National Climate Archives
Date modified: